Location: Maccacari
(45.1333°N, 11.1333°E)
Time: 01:05:50
(UTC+00:00)

A-11 Canister half - Pass Details

Date: 28 January 2021
Orbit: 1525 x 1684 km, 47.3° (Epoch: 07 March)

Event Time Altitude Azimuth Distance (km) Brightness Sun altitude
Rises 17:09:54 0° 286° (WNW) 4,710 12.6 -9.5°
Reaches altitude 10° 17:12:55 10° 287° (WNW) 3,741 12.0 -10.0°
Maximum altitude 17:22:26 87° 200° (SSW) 1,596 9.1 -11.6°
Drops below altitude 10° 17:32:18 10° 113° (ESE) 3,860 10.6 -13.3°
Enters shadow 17:33:02 - 113° (ESE) 4,090 10.7 -13.4°
Sets 17:35:28 0° 113° (ESE) 4,865 - -13.8°
